[Date Prev][Date Next][Thread Prev][Thread Next] - [Date Index][Thread Index][Author Index]
2 Line ISS Keps 1-25
- Subject: [sarex] 2 Line ISS Keps 1-25
- From: "Dave Larsen PhD" <doc@xxxxxxxxxxx>
- Date: Fri, 25 Jan 2002 01:58:35 -0800
ISS
1 25544U 98067A 02025.20107221 .00068679 00000-0 88408-3 0 9980
2 25544 51.6412 51.7239 0006822 352.9475 122.5228 15.58384640181726
----
Via the sarex mailing list at AMSAT.ORG courtesy of AMSAT-NA.
To unsubscribe, send "unsubscribe sarex" to Majordomo@amsat.org
AMSAT Home